PBO Station Position Time Series. Reference Frame : NAM14
Format Version,1.1.0
4-character ID,LMCN
Station name,Lumcon_LA2003
Begin Date, 2003-04-24
End Date, 2019-10-07
Release Date, 2019-10-08
Reference position, 29.2549785786 North Latitude, -90.6612997778 East Longitude, -16.14906 meters elevation,
Date, North (mm), East (mm), Vertical (mm), North Std. Deviation (mm), East Std. Deviation (mm),              Vertical Std. Deviation (mm), Quality,
2003-04-24,0.00, 0.00, 0.00, 1.80, 1.78, 7.75, repro,
2003-04-25,-1.03, -0.55, -2.58, 1.83, 1.80, 8.03, repro,
2003-04-26,0.02, 0.65, -4.17, 1.78, 1.78, 7.88, repro,
2003-04-27,-0.06, -1.25, -7.43, 1.77, 1.75, 7.66, repro,
2003-04-28,0.20, 0.71, -10.18, 1.81, 1.79, 7.96, repro,
2003-04-29,0.02, 0.25, -6.37, 1.85, 1.83, 7.95, repro,
2003-04-30,-0.47, 0.19, -8.06, 1.82, 1.87, 8.13, repro,
2003-05-01,0.19, 0.96, -9.01, 1.81, 1.86, 8.08, repro,
2003-05-02,0.02, 2.20, -9.61, 1.81, 1.82, 7.84, repro,
2003-05-03,-0.34, 1.21, -10.10, 1.84, 1.83, 7.93, repro,
2003-05-04,0.39, 3.22, 4.43, 1.87, 1.86, 7.96, repro,
2003-05-05,0.91, 2.38, -8.77, 1.84, 1.82, 7.91, repro,
2003-05-06,0.85, 1.65, -9.28, 1.86, 1.86, 7.96, repro,
2003-05-07,2.03, 1.87, -5.33, 1.91, 1.94, 8.06, repro,
2003-05-08,0.37, 2.88, -10.90, 1.88, 1.84, 7.99, repro,
2003-05-09,0.12, 2.79, -7.10, 1.98, 1.91, 8.43, repro,
2003-05-10,0.76, 2.46, -4.21, 1.81, 1.79, 7.83, repro,
2003-05-11,1.52, 1.89, -2.15, 1.79, 1.78, 7.68, repro,
2003-05-12,2.39, 1.50, -7.92, 1.86, 1.85, 8.12, repro,
2003-05-13,1.16, 1.45, -8.36, 1.87, 1.90, 7.98, repro,
2003-05-14,0.49, 1.32, -8.63, 1.87, 1.88, 8.05, repro,
2003-05-15,-1.32, 1.03, -11.19, 1.93, 1.97, 8.38, repro,
2003-05-16,-0.26, 2.58, -7.23, 1.79, 1.81, 7.77, repro,
2003-05-17,0.32, 1.78, -9.93, 1.84, 1.82, 8.01, repro,
2003-05-18,2.74, 1.10, -7.71, 1.87, 1.87, 8.11, repro,
2003-05-19,-4.23, -0.50, -16.42, 2.19, 2.20, 9.48, repro,
2003-05-20,-0.66, 3.38, -2.73, 2.05, 1.98, 8.98, repro,
2003-05-21,1.11, 1.62, -8.59, 1.92, 1.90, 8.17, repro,
2003-05-22,1.13, 1.41, -14.24, 1.82, 1.81, 7.91, repro,
2003-05-23,-0.82, -0.12, -9.62, 1.83, 1.81, 7.86, repro,
2003-05-24,0.24, 0.93, -12.48, 1.88, 1.86, 7.92, repro,
2003-05-25,1.65, 2.25, 0.39, 1.78, 1.75, 7.73, repro,
2003-05-26,-0.34, 3.45, -12.83, 1.79, 1.79, 7.85, repro,
2003-05-27,1.04, 2.58, -7.66, 1.95, 1.95, 8.37, repro,
2003-05-28,1.06, -0.05, -12.51, 1.92, 1.88, 8.37, repro,
2003-05-29,0.78, -0.12, -6.67, 1.80, 1.84, 7.93, repro,
2003-05-30,-1.23, 0.91, 3.49, 1.81, 1.82, 7.91, repro,
2003-05-31,0.76, 1.12, -3.21, 1.77, 1.77, 7.69, repro,
2003-06-01,1.83, 1.34, -5.43, 1.77, 1.78, 7.71, repro,
2003-06-02,-0.52, 1.59, -7.64, 1.92, 2.03, 8.34, repro,
2003-06-03,1.16, 3.89, 11.71, 2.16, 2.10, 9.45, repro,
2003-06-04,-0.46, 3.38, -1.87, 1.88, 1.90, 8.27, repro,
2003-06-05,-1.85, -0.71, -0.96, 1.95, 2.02, 8.78, repro,
2003-06-06,-0.88, -1.69, -10.09, 1.97, 1.98, 8.76, repro,
2003-06-07,1.07, 1.70, -5.41, 1.88, 2.04, 8.44, repro,
2003-06-08,2.14, 2.83, 5.60, 1.91, 1.84, 8.47, repro,
2003-06-09,1.24, 2.83, -9.87, 1.78, 1.77, 7.78, repro,
2003-06-10,1.08, 3.47, -7.44, 1.81, 1.81, 7.84, repro,
2003-06-11,1.02, 2.06, -0.31, 1.83, 1.83, 8.14, repro,
2003-06-12,0.69, 3.73, -7.01, 1.78, 1.80, 7.82, repro,
2003-06-13,0.77, 3.76, -11.50, 1.93, 1.94, 8.51, repro,
2003-06-14,1.58, 2.81, -2.89, 1.81, 1.80, 7.93, repro,
2003-06-15,2.12, 3.16, -2.65, 1.93, 1.95, 8.38, repro,
2003-06-16,0.87, 1.61, -12.92, 1.92, 1.84, 8.22, repro,
2003-06-17,0.88, 2.61, -5.59, 2.09, 2.12, 8.71, repro,
2003-06-18,0.80, 2.23, -5.48, 1.84, 1.78, 8.00, repro,
2003-06-19,2.42, 1.31, -5.93, 1.91, 1.99, 8.46, repro,
2003-06-20,0.88, 3.61, -8.13, 2.01, 2.11, 9.13, repro,
2003-06-21,-1.66, 2.13, -8.44, 2.03, 2.03, 8.94, repro,
2003-06-22,0.98, 1.85, -9.49, 2.09, 2.17, 8.93, repro,
2003-06-23,-0.11, 1.59, -4.18, 1.87, 1.84, 8.08, repro,
2003-06-24,-2.00, -2.12, -14.13, 2.08, 2.03, 9.09, repro,
2003-06-25,1.80, -2.58, -3.68, 1.92, 1.94, 8.44, repro,
2003-06-26,0.58, 4.39, -6.83, 1.96, 1.97, 8.53, repro,
2003-06-27,0.74, -3.16, -4.80, 1.84, 1.84, 7.96, repro,
2003-06-28,1.25, 1.99, -10.78, 1.97, 2.10, 9.04, repro,
2003-06-29,-3.33, 2.47, -2.06, 1.94, 1.96, 8.49, repro,
2003-06-30,-1.57, 1.82, -19.67, 2.00, 1.96, 8.68, repro,
2003-07-01,-0.01, 0.82, -4.22, 1.86, 1.89, 8.14, repro,
2003-07-02,-0.96, 3.46, -15.95, 2.05, 2.15, 9.12, repro,
2003-07-03,2.48, 1.70, -7.97, 2.08, 2.17, 9.23, repro,
2003-07-04,0.56, 0.03, -0.66, 1.85, 1.81, 8.18, repro,
2003-07-05,0.01, 0.64, -11.72, 1.79, 1.76, 7.78, repro,
2003-07-06,1.13, 0.24, -13.36, 1.80, 1.78, 7.96, repro,
2003-07-07,1.72, 4.43, -1.54, 2.02, 2.05, 8.93, repro,
2003-07-08,1.94, 0.50, -18.33, 1.86, 1.87, 8.18, repro,
2003-07-09,-0.27, 2.73, -7.94, 1.85, 1.87, 7.98, repro,
2003-07-10,1.12, 3.51, -12.88, 1.83, 1.84, 7.97, repro,
2003-07-11,1.87, 0.51, -10.57, 1.96, 1.99, 8.66, repro,
2003-07-12,4.40, 0.70, 6.05, 1.88, 1.88, 8.26, repro,
2003-07-13,3.11, 2.75, 0.50, 2.00, 2.06, 8.59, repro,
2003-07-14,-1.61, 1.16, -9.83, 1.86, 1.86, 8.11, repro,
2003-07-15,0.02, 1.52, -0.76, 1.99, 1.99, 8.65, repro,
2003-07-16,0.55, 4.01, -12.43, 1.87, 1.89, 8.08, repro,
2003-07-17,2.31, 2.92, -10.57, 1.92, 1.96, 8.61, repro,
2003-07-18,1.60, 1.87, -16.24, 1.83, 1.85, 8.02, repro,
2003-07-19,1.58, 3.38, -8.25, 1.84, 1.83, 7.99, repro,
2003-07-20,1.35, 2.81, -13.84, 1.99, 2.15, 8.69, repro,
2003-07-21,1.98, 2.90, -3.54, 1.97, 2.02, 8.64, repro,
2003-07-22,1.26, 0.66, -6.32, 2.19, 2.46, 10.81, repro,
2003-07-23,1.86, 4.16, -0.89, 1.93, 1.91, 8.58, repro,
2003-07-24,1.84, 0.18, -4.86, 1.93, 1.93, 8.51, repro,
2003-07-25,-0.66, 2.88, -13.32, 2.05, 2.02, 9.03, repro,
2003-07-26,-1.44, 3.76, -11.64, 1.92, 1.93, 8.28, repro,
2003-07-27,-2.54, 0.11, -11.39, 1.89, 1.89, 8.31, repro,
2003-07-28,1.96, 2.25, -6.72, 1.90, 1.88, 8.23, repro,
2003-07-29,2.37, 3.25, 0.37, 1.85, 1.85, 8.11, repro,
2003-07-30,1.62, 4.57, -4.59, 1.94, 1.94, 8.38, repro,
2003-07-31,3.00, 4.16, -12.30, 1.94, 1.93, 8.20, repro,
2003-08-01,2.92, 1.02, -9.86, 2.01, 2.03, 8.80, repro,
2003-08-02,-0.77, 0.89, -3.65, 2.11, 2.30, 9.43, repro,
2003-08-03,4.42, 1.58, -13.87, 2.00, 2.01, 8.74, repro,
2003-08-04,1.80, 1.88, -8.51, 1.89, 1.87, 8.30, repro,
2003-08-05,0.25, 2.08, -6.73, 1.81, 1.77, 7.80, repro,
2003-08-06,1.38, 3.52, -4.07, 1.97, 2.00, 8.93, repro,
2003-08-07,0.34, 5.57, -6.54, 1.82, 1.79, 7.93, repro,
2003-08-08,0.73, 3.78, -16.14, 1.87, 1.87, 8.13, repro,
2003-08-09,-1.16, 2.92, -6.04, 2.26, 2.28, 9.86, repro,
2003-08-10,0.70, -0.11, -5.73, 1.81, 1.78, 7.87, repro,
2003-08-11,-1.41, 4.25, -3.65, 1.91, 1.97, 8.34, repro,
2003-08-12,-1.42, 3.17, -0.13, 2.03, 2.01, 8.88, repro,
2003-08-13,-0.47, -0.73, -11.97, 1.86, 1.92, 8.18, repro,
2003-08-14,0.42, -0.84, -18.29, 1.80, 1.78, 7.85, repro,
2003-08-15,0.99, -0.06, -9.28, 2.04, 2.05, 8.81, repro,
2003-08-16,-0.15, 2.08, -10.43, 1.84, 1.81, 8.03, repro,
2003-08-17,-0.90, 1.58, -0.06, 2.03, 2.10, 9.09, repro,
2003-08-18,1.49, 1.54, -12.98, 1.80, 1.77, 7.76, repro,
2003-08-19,4.80, 1.68, 1.39, 1.86, 1.92, 8.25, repro,
2003-08-20,0.75, 1.15, -17.17, 2.10, 2.20, 9.25, repro,
2003-08-21,-1.29, 0.48, -12.20, 1.83, 1.83, 7.92, repro,
2003-08-22,3.11, 2.47, -7.95, 1.77, 1.74, 7.59, repro,
2003-08-23,1.32, -1.03, -11.11, 1.80, 1.82, 7.83, repro,
2003-08-24,1.59, -0.47, -18.40, 1.91, 1.88, 8.31, repro,
2003-08-25,2.92, 3.60, -11.45, 1.85, 1.86, 8.21, repro,
2003-08-26,2.27, 0.58, -19.29, 1.88, 1.86, 8.28, repro,
2003-08-27,3.23, 1.89, -9.62, 1.80, 1.78, 7.80, repro,
2003-08-28,0.42, 0.24, -13.06, 1.82, 1.80, 7.83, repro,
2003-08-29,-0.01, 0.39, -16.89, 1.89, 1.85, 8.07, repro,
2003-08-30,0.44, 1.77, -18.64, 1.91, 1.87, 8.42, repro,
2003-08-31,-0.23, 4.06, -17.37, 1.86, 1.94, 8.35, repro,
2003-09-01,0.93, 1.67, -9.65, 1.85, 1.84, 8.05, repro,
2003-09-02,0.50, 1.54, -14.88, 1.83, 1.85, 8.04, repro,
2003-09-03,0.73, 4.46, -14.99, 1.88, 1.98, 8.36, repro,
2003-09-04,0.80, 4.31, -15.33, 1.89, 1.83, 8.14, repro,
2003-09-05,2.46, 1.58, -2.39, 1.93, 1.91, 8.20, repro,
2003-09-06,0.10, 0.43, -5.95, 1.86, 1.81, 8.20, repro,
2003-09-07,0.18, 1.44, -10.18, 1.82, 1.85, 7.89, repro,
2003-09-08,0.88, -0.42, -14.39, 1.89, 1.89, 8.12, repro,
2003-09-09,1.15, 3.12, 3.72, 1.89, 1.92, 8.28, repro,
2003-09-10,1.22, 0.10, -8.47, 1.89, 1.87, 8.36, repro,
2003-09-11,-2.09, 1.27, 11.65, 1.87, 1.88, 8.24, repro,
2003-09-12,0.92, 1.67, 4.40, 2.03, 1.99, 8.79, repro,
2003-09-13,0.90, 1.95, -8.94, 1.86, 1.79, 8.14, repro,
2003-09-14,-0.54, 2.52, -10.73, 1.94, 1.99, 8.44, repro,
2003-09-15,1.88, 3.62, 0.78, 2.04, 2.03, 8.82, repro,
2003-09-16,0.64, 1.07, -6.77, 1.87, 1.86, 8.27, repro,
2003-09-17,-0.40, 1.32, -6.36, 1.82, 1.85, 7.94, repro,
2003-09-18,0.82, 2.40, -7.28, 1.82, 1.78, 7.97, repro,
2003-09-19,0.17, 2.18, -3.16, 1.87, 1.85, 8.25, repro,
2003-09-20,-0.17, 0.55, -5.17, 1.92, 1.81, 8.15, repro,
2003-09-21,0.49, 0.33, 1.21, 2.23, 2.19, 9.98, repro,
2003-09-22,0.59, 0.10, -6.36, 1.92, 1.92, 8.47, repro,
2003-09-23,1.05, 0.10, -9.99, 1.95, 1.99, 8.67, repro,
2003-09-24,0.47, -0.79, -5.44, 1.91, 1.87, 8.36, repro,
2003-09-25,-0.01, 1.83, -6.84, 2.09, 2.04, 9.13, repro,
2003-09-26,-1.79, 0.86, 3.23, 2.04, 1.95, 9.08, repro,
2003-09-27,-0.81, -0.23, -19.77, 1.93, 1.91, 8.62, repro,
2003-09-28,1.09, 0.49, -16.87, 1.90, 1.94, 8.30, repro,
2003-09-29,-0.57, 0.39, -8.49, 2.07, 2.07, 8.99, repro,
2003-09-30,-2.18, -2.19, -14.04, 1.99, 1.90, 8.66, repro,
2003-10-01,-1.90, -1.02, -12.08, 1.91, 1.83, 8.23, repro,
2003-10-02,-3.61, -3.01, -12.57, 1.94, 1.99, 8.75, repro,
2003-10-03,-2.36, -2.61, -10.40, 1.83, 1.81, 7.96, repro,
2003-10-04,-0.93, -0.10, -10.75, 1.98, 1.91, 8.70, repro,
2003-10-05,-1.87, 0.17, -5.62, 1.86, 1.88, 8.23, repro,
2003-10-06,-1.56, -0.52, -11.75, 1.94, 1.88, 8.42, repro,
2003-10-07,-2.08, -0.37, -4.22, 1.87, 1.88, 8.40, repro,
2003-10-08,-1.03, 0.26, -10.02, 1.95, 1.96, 8.77, repro,
2003-10-09,-0.29, 1.01, -7.97, 1.84, 1.80, 8.12, repro,
2003-10-10,-1.54, -1.09, 6.03, 1.97, 1.92, 8.82, repro,
2003-10-11,-1.48, -0.76, -16.70, 1.94, 1.89, 8.61, repro,
2003-10-12,-1.17, -2.09, -11.26, 1.94, 1.98, 8.51, repro,
2003-10-13,-0.34, 0.22, -15.83, 1.97, 1.90, 8.62, repro,
2003-10-14,-1.19, -0.19, -6.74, 1.85, 1.80, 8.11, repro,
2003-10-15,-1.94, -0.31, -7.01, 1.90, 1.83, 8.31, repro,
2003-10-16,-1.28, -1.46, -16.39, 1.83, 1.75, 7.93, repro,
2003-10-17,-2.30, -1.48, -6.16, 1.82, 1.80, 7.90, repro,
2003-10-18,-0.37, -2.41, -10.01, 2.01, 2.00, 8.77, repro,
2003-10-19,-2.51, -1.52, -14.82, 1.85, 1.79, 8.10, repro,
2003-10-20,-1.27, -2.31, -15.63, 1.88, 1.80, 8.19, repro,
2003-10-21,-0.88, -0.90, -16.40, 1.81, 1.77, 7.80, repro,
2003-10-22,-2.08, -1.94, -17.63, 1.91, 1.89, 8.09, repro,
2003-10-23,-2.32, -1.88, -16.42, 1.82, 1.77, 7.82, repro,
2003-10-24,-1.04, -0.04, -11.01, 1.91, 1.87, 8.39, repro,
2003-10-25,-0.68, -2.88, -8.20, 1.95, 1.92, 8.22, repro,
2003-10-26,-2.71, -0.43, -10.70, 2.02, 1.94, 8.80, repro,
2003-10-27,-2.57, -2.59, -14.28, 1.82, 1.81, 7.76, repro,
2003-10-28,-2.76, -2.94, -10.68, 1.87, 1.86, 8.02, repro,
2003-10-29,-3.17, -3.46, -14.07, 2.05, 2.01, 8.71, repro,
2003-10-30,-3.12, -2.13, -11.22, 2.20, 2.21, 9.45, repro,
2003-10-31,-1.08, -1.88, -20.24, 1.90, 1.91, 8.11, repro,
2003-11-01,-1.24, -1.72, -20.93, 1.78, 1.74, 7.64, repro,
2003-11-02,-1.50, -2.66, -22.16, 1.84, 1.80, 7.86, repro,
2003-11-03,-1.95, -3.71, -16.93, 1.82, 1.79, 7.77, repro,
2003-11-04,-1.64, -1.88, -17.25, 1.84, 1.85, 7.90, repro,
2003-11-05,-0.98, -0.49, -22.41, 1.83, 1.81, 7.79, repro,
2003-11-06,-1.08, -0.73, -18.60, 1.79, 1.74, 7.62, repro,
2003-11-07,-1.62, -0.98, -19.33, 1.88, 1.88, 7.90, repro,
2003-11-08,-1.78, -2.63, -26.18, 1.92, 1.93, 8.04, repro,
2003-11-09,-0.25, -2.53, -18.14, 1.84, 1.80, 7.93, repro,
2003-11-10,-1.11, -3.39, -21.23, 1.86, 1.87, 8.00, repro,
2003-11-11,-1.65, -2.12, -16.15, 1.87, 1.86, 7.96, repro,
2003-11-12,-0.54, -2.24, -15.31, 1.83, 1.80, 7.81, repro,
2003-11-13,-0.21, -2.64, -15.43, 1.88, 1.89, 8.17, repro,
2003-11-14,-1.35, -3.48, -12.10, 2.01, 1.94, 8.79, repro,
2003-11-15,-1.60, -3.67, -19.07, 1.83, 1.79, 7.89, repro,
2003-11-16,-1.08, -2.30, -6.34, 1.96, 1.97, 8.22, repro,
2003-11-17,-2.19, -2.44, -18.55, 1.91, 2.00, 8.51, repro,
2003-11-18,0.21, -2.33, -26.56, 1.92, 1.99, 8.53, repro,
2003-11-19,-0.54, -5.77, -11.36, 1.82, 1.79, 7.78, repro,
2003-11-20,-1.52, -5.54, -7.19, 1.91, 1.87, 8.31, repro,
2003-11-21,-2.25, -4.89, -17.15, 2.00, 1.99, 8.41, repro,
2003-11-22,-2.10, -4.99, -13.23, 1.92, 1.87, 8.16, repro,
2003-11-23,-1.55, -2.10, -16.92, 1.92, 1.86, 8.12, repro,
2003-11-24,-0.07, -6.51, -10.76, 1.86, 1.90, 8.25, repro,
2003-11-25,-3.01, -6.96, -10.05, 1.96, 2.00, 8.46, repro,
2003-11-26,-3.16, -6.70, -14.03, 1.78, 1.77, 7.78, repro,
2003-11-27,-3.80, -6.81, -27.33, 1.97, 2.09, 8.56, repro,
2003-11-28,-2.64, -6.31, -27.88, 1.82, 1.82, 7.85, repro,
2003-11-29,-3.42, -7.72, -21.16, 1.90, 1.85, 8.04, repro,
2003-11-30,-3.30, -7.53, -21.32, 1.82, 1.81, 7.84, repro,
2003-12-01,-3.52, -6.88, -25.60, 1.83, 1.79, 7.86, repro,
2003-12-02,-2.91, -5.04, -21.46, 1.91, 1.89, 8.14, repro,
2003-12-03,-2.81, -6.36, -24.53, 1.98, 1.96, 8.57, repro,
2003-12-04,-2.38, -3.96, -21.35, 1.90, 1.86, 8.07, repro,
2003-12-05,-2.17, -5.36, -21.90, 1.81, 1.78, 7.85, repro,
2003-12-06,-2.53, -7.69, -16.70, 1.83, 1.81, 7.87, repro,
2003-12-07,-0.58, -10.27, -22.03, 5.48, 5.56, 23.67, repro,
2003-12-08,-5.08, -7.02, -16.73, 1.89, 1.84, 7.95, repro,
2003-12-09,-3.79, -5.78, -19.89, 1.79, 1.78, 7.71, repro,
2003-12-10,-2.74, -6.70, -14.04, 1.83, 1.82, 7.78, repro,
2003-12-11,-4.20, -6.57, -12.16, 1.98, 2.05, 8.36, repro,
2003-12-12,-2.97, -6.66, -21.04, 1.84, 1.81, 7.85, repro,
2003-12-13,-4.36, -6.58, -20.01, 1.93, 1.88, 8.38, repro,
2003-12-14,-3.28, -7.64, -18.09, 1.94, 1.96, 8.19, repro,
2003-12-15,-5.09, -7.35, -18.69, 1.86, 1.82, 7.82, repro,
2003-12-16,-3.32, -5.76, -16.60, 1.85, 1.87, 7.94, repro,
2003-12-17,-3.72, -7.60, -17.19, 1.95, 2.02, 8.39, repro,
2003-12-18,-3.85, -7.90, -27.91, 1.92, 1.84, 8.00, repro,
2003-12-19,-3.24, -7.86, -19.24, 1.98, 1.99, 8.41, repro,
2003-12-20,-3.38, -8.04, -20.66, 2.00, 1.95, 8.51, repro,
2003-12-21,-3.13, -7.53, -23.01, 1.93, 1.90, 8.25, repro,
2003-12-22,-3.10, -7.04, -22.11, 1.90, 1.92, 8.11, repro,
2003-12-23,-1.85, -6.60, -28.40, 1.85, 1.83, 8.00, repro,
2003-12-24,-3.47, -6.25, -6.80, 2.18, 2.30, 9.23, repro,
2003-12-25,-3.17, -7.50, -15.06, 2.05, 2.10, 8.68, repro,
2003-12-26,-2.70, -7.97, -17.30, 1.81, 1.79, 7.90, repro,
2003-12-27,-3.35, -5.88, -16.78, 1.98, 2.04, 8.86, repro,
2003-12-28,-1.58, -5.74, -18.31, 1.85, 1.90, 8.12, repro,
2003-12-29,-2.25, -4.71, -21.32, 1.89, 1.85, 8.32, repro,
2003-12-30,-2.25, -6.14, -17.22, 1.82, 1.81, 7.89, repro,
2003-12-31,-1.79, -6.53, -30.76, 1.79, 1.74, 7.71, repro,
2004-01-01,-1.65, -4.77, -18.10, 1.94, 1.91, 8.57, repro,
2004-01-02,-2.19, -3.30, -9.43, 1.86, 1.85, 8.05, repro,
2004-01-03,-2.26, -2.60, -16.28, 1.89, 1.88, 8.27, repro,
2004-01-04,-1.10, -2.79, -18.82, 1.89, 1.88, 8.14, repro,
2004-01-05,-1.34, -2.29, -13.70, 1.92, 1.86, 8.26, repro,
2004-01-06,-2.27, -7.05, -13.05, 2.09, 2.03, 9.18, repro,
2004-01-07,-1.38, -7.68, -21.89, 1.85, 1.84, 7.95, repro,
2004-01-08,-0.87, -8.27, -19.05, 1.84, 1.85, 8.10, repro,
2004-01-09,-3.23, -6.51, -25.38, 1.87, 1.88, 8.11, repro,
2004-01-10,-2.90, -7.31, -22.78, 1.80, 1.78, 7.78, repro,
2004-01-11,-3.03, -7.63, -23.62, 1.90, 1.89, 8.16, repro,
2004-01-12,-3.94, -7.27, -21.62, 2.00, 2.01, 8.66, repro,
2004-01-13,-1.63, -6.15, -18.87, 1.88, 1.97, 8.05, repro,
2004-01-14,-0.08, -5.70, -15.77, 1.92, 2.02, 8.25, repro,
2004-01-15,-2.00, -6.04, -15.28, 1.84, 1.87, 7.97, repro,
2004-01-16,-2.08, -5.33, -15.55, 1.93, 2.03, 8.55, repro,
2004-01-17,-2.85, -5.60, -15.02, 1.88, 1.90, 8.36, repro,
2004-01-18,-3.16, -5.74, -12.94, 1.87, 1.90, 8.19, repro,
2004-01-19,-1.10, -5.81, -16.34, 1.80, 1.82, 7.83, repro,
2004-01-20,-2.26, -7.30, -15.55, 1.89, 1.91, 8.37, repro,
2004-01-21,-1.69, -8.59, -18.54, 1.83, 1.85, 8.08, repro,
2004-01-22,-1.72, -7.37, -19.98, 1.85, 1.93, 8.30, repro,
2004-01-23,-1.62, -5.80, -20.75, 1.84, 1.86, 8.08, repro,
2004-01-24,-3.16, -5.32, -19.91, 1.91, 1.99, 8.16, repro,
2004-01-25,-2.28, -3.91, -11.85, 1.85, 1.88, 8.15, repro,
2004-01-26,-2.11, -7.96, -13.43, 1.84, 1.85, 8.13, repro,
2004-01-27,-2.22, -5.62, -16.11, 1.79, 1.83, 7.95, repro,
2004-01-28,-0.87, -7.93, -16.96, 1.90, 1.97, 8.42, repro,
2004-01-29,-2.52, -9.12, -14.44, 1.88, 1.91, 8.22, repro,
2004-01-30,-2.84, -7.89, -17.06, 1.92, 1.99, 8.43, repro,
2004-01-31,-3.40, -7.07, -21.59, 1.83, 1.84, 8.05, repro,
2004-02-01,-2.45, -6.56, -17.62, 1.87, 1.91, 8.07, repro,
2004-02-02,-2.81, -6.27, -19.94, 1.75, 1.75, 7.63, repro,
2004-02-03,-2.07, -6.45, -20.23, 1.82, 1.81, 7.96, repro,
2004-02-04,-3.61, -8.84, -26.07, 1.86, 1.86, 8.24, repro,
2004-02-05,-1.12, -6.08, -20.74, 2.09, 2.19, 9.40, repro,
2004-02-06,-2.09, -5.35, -23.37, 1.95, 2.03, 8.79, repro,
2004-02-07,-2.41, -8.25, -25.53, 1.83, 1.85, 8.13, repro,
2004-02-08,-2.90, -9.58, -16.52, 1.77, 1.79, 7.72, repro,
2004-02-09,-2.12, -9.74, -23.44, 1.74, 1.75, 7.55, repro,
2004-02-10,-2.14, -8.57, -16.33, 1.78, 1.77, 7.72, repro,
2004-02-11,-1.42, -6.58, -15.96, 1.75, 1.73, 7.61, repro,
2004-02-12,-0.05, -6.83, -23.43, 1.86, 1.86, 8.08, repro,
2004-02-13,-1.83, -7.22, -6.68, 1.83, 1.78, 7.76, repro,
2004-02-14,-3.13, -8.16, -8.39, 1.80, 1.84, 7.83, repro,
2004-02-15,-3.74, -8.59, -11.65, 1.92, 1.83, 8.06, repro,
2004-02-16,-1.76, -9.23, -21.13, 1.84, 1.80, 7.84, repro,
2004-02-17,-2.47, -7.68, -21.45, 1.84, 1.81, 7.89, repro,
2004-02-18,-1.73, -7.46, -17.26, 1.78, 1.74, 7.67, repro,
2004-02-19,-2.48, -6.31, -12.45, 1.77, 1.74, 7.66, repro,
2004-02-20,-1.98, -5.72, -4.93, 1.78, 1.74, 7.66, repro,
2004-02-21,-0.21, -5.73, -9.01, 1.78, 1.76, 7.73, repro,
2004-02-22,-2.07, -4.75, -19.89, 1.83, 1.78, 7.94, repro,
2004-02-23,-2.97, -4.37, -6.35, 1.99, 1.99, 8.71, repro,
2004-02-24,-2.06, -3.19, -12.22, 1.84, 1.77, 7.99, repro,
2004-02-25,-1.15, -6.84, -9.43, 1.87, 1.84, 8.11, repro,
2004-02-26,-2.11, -7.09, -13.30, 1.82, 1.77, 7.89, repro,
2004-02-27,-1.76, -7.43, -10.74, 1.83, 1.78, 7.90, repro,
2004-02-28,-2.35, -7.01, -19.30, 1.88, 1.86, 8.14, repro,
2004-02-29,-2.59, -5.48, -13.90, 1.83, 1.78, 7.97, repro,
2004-03-01,-3.13, -5.10, -13.89, 2.25, 2.28, 10.15, repro,
2004-03-02,-1.20, -2.41, -17.05, 1.82, 1.80, 7.93, repro,
2004-03-03,-0.22, -2.51, -15.04, 1.87, 1.82, 8.11, repro,
2004-03-04,-0.96, -2.22, -8.13, 1.94, 1.96, 8.65, repro,
2004-03-05,0.00, -0.86, -15.85, 1.85, 1.82, 8.09, repro,
2004-03-06,0.87, -1.51, -17.04, 1.92, 1.85, 8.52, repro,
2004-03-07,-0.26, -2.03, -18.15, 1.83, 1.80, 8.01, repro,
2004-03-08,0.17, -4.20, -13.77, 1.85, 1.88, 8.35, repro,
2004-03-09,-0.23, -3.59, -9.83, 1.91, 1.86, 8.53, repro,
2004-03-10,-1.17, -5.31, -12.28, 1.83, 1.81, 8.03, repro,
2004-03-11,-0.94, -5.63, -14.59, 1.85, 1.86, 8.27, repro,
2004-03-12,-1.29, -4.06, -18.90, 1.89, 1.92, 8.56, repro,
2004-03-13,-1.72, -3.58, -18.16, 1.86, 1.87, 8.27, repro,
2004-03-14,-1.45, -4.02, -23.78, 1.88, 1.89, 8.33, repro,
2004-03-15,-1.34, -3.46, -24.15, 1.89, 1.90, 8.41, repro,
2004-03-16,-2.22, -3.25, -14.11, 1.84, 1.81, 8.06, repro,
2004-03-17,-0.62, -4.90, -14.89, 2.00, 2.03, 8.94, repro,
2004-03-18,-2.16, -2.22, -15.90, 1.86, 1.81, 8.02, repro,
2004-03-19,-0.23, -2.01, -19.35, 1.92, 1.93, 8.48, repro,
2004-03-20,-0.21, -3.59, -24.20, 1.91, 1.92, 8.46, repro,
2004-03-21,-0.97, -1.44, -23.42, 1.90, 1.91, 8.42, repro,
2004-03-22,-1.14, -3.65, -21.92, 1.83, 1.80, 8.07, repro,
2004-03-23,-0.56, -5.40, -18.63, 1.85, 1.86, 8.31, repro,
2004-03-24,-1.64, -3.14, -18.75, 1.84, 1.85, 8.23, repro,
2004-03-25,0.74, -4.09, -24.40, 1.86, 1.86, 8.26, repro,
2004-03-26,0.39, -2.67, -12.73, 1.85, 1.82, 8.04, repro,
2004-03-27,0.35, -0.70, -17.10, 1.83, 1.76, 7.89, repro,
2004-03-28,0.27, -1.25, -15.95, 1.83, 1.76, 7.92, repro,
2004-03-29,-1.00, -1.11, -11.78, 2.01, 1.89, 8.51, repro,
2004-03-30,1.78, -3.97, -17.25, 1.92, 1.89, 8.20, repro,
2004-03-31,-0.54, -2.96, -8.34, 1.83, 1.81, 7.93, repro,
2004-04-01,-1.63, -2.92, -10.74, 1.87, 1.88, 8.28, repro,
2004-04-02,-1.96, -2.35, -11.21, 1.80, 1.74, 7.83, repro,
2004-04-03,0.46, -2.50, -12.56, 1.82, 1.76, 7.83, repro,
2004-04-04,-0.76, -1.71, -13.83, 1.84, 1.80, 7.96, repro,
2004-04-05,-0.33, -0.88, -12.75, 1.80, 1.76, 7.83, repro,
2004-04-06,-1.38, -1.73, -13.31, 1.82, 1.77, 7.93, repro,
2004-04-07,-0.29, -1.71, -17.24, 1.93, 1.93, 8.53, repro,
2004-04-08,-1.37, -0.56, -8.50, 1.81, 1.76, 7.85, repro,
2004-04-09,-0.67, -1.67, -11.51, 1.80, 1.75, 7.84, repro,
2004-04-10,-0.03, 0.46, -12.26, 1.82, 1.77, 7.91, repro,
2004-04-11,0.42, 1.23, 1.17, 2.16, 2.14, 9.38, repro,
2004-04-12,-1.34, -0.55, -16.28, 1.86, 1.86, 8.25, repro,
2004-04-13,-3.85, -4.21, -10.46, 1.86, 1.80, 8.00, repro,
2004-04-14,-2.53, -4.81, -9.59, 1.86, 1.80, 7.97, repro,
2004-04-15,-1.69, -4.53, -15.25, 1.80, 1.75, 7.80, repro,
2004-04-16,-1.47, -2.91, -15.95, 1.84, 1.80, 8.02, repro,
2004-04-17,-1.48, -2.57, -10.66, 1.92, 1.90, 8.23, repro,
2004-04-18,-1.02, -1.88, -15.96, 1.92, 1.85, 8.19, repro,
2004-04-19,-0.56, -2.38, -14.23, 1.86, 1.79, 8.04, repro,
2004-04-20,-0.40, -2.53, -6.98, 1.88, 1.83, 8.22, repro,
2004-04-21,-1.05, 1.99, -2.24, 1.90, 1.85, 8.19, repro,
2004-04-22,-1.13, 0.56, -6.28, 2.00, 1.97, 8.34, repro,
2004-04-23,1.21, -0.05, -15.05, 1.91, 1.90, 8.17, repro,
2004-04-24,0.12, 1.67, -10.45, 1.85, 1.79, 8.05, repro,
2004-04-25,-0.77, -0.45, -10.26, 1.94, 1.95, 8.47, repro,
2004-04-26,0.35, -1.79, -8.47, 2.02, 2.10, 8.89, repro,
2004-04-27,1.17, -1.89, -9.08, 2.02, 1.93, 8.71, repro,
2004-04-28,-0.05, -1.07, -10.08, 2.01, 2.02, 8.87, repro,
2004-04-29,-0.26, -0.79, -6.38, 1.88, 1.86, 8.29, repro,
2004-04-30,0.16, 0.41, -5.19, 1.96, 1.91, 8.69, repro,
2004-05-01,-0.51, -0.69, -19.09, 2.20, 2.15, 9.39, repro,
2004-05-02,0.72, -1.90, -22.39, 2.08, 2.02, 8.83, repro,
2004-05-03,-1.04, -2.66, -12.95, 2.01, 1.96, 8.53, repro,
2004-05-04,-0.67, -2.55, -10.49, 2.13, 2.02, 9.10, repro,
2004-05-05,-1.92, -1.70, -3.68, 1.99, 1.89, 8.59, repro,
2004-05-06,-0.65, -2.83, -11.73, 1.92, 1.83, 8.37, repro,
2004-05-07,0.58, -2.28, -11.33, 2.14, 1.96, 9.30, repro,
2004-05-08,0.49, -0.51, -12.04, 2.14, 1.95, 9.34, repro,
2004-05-09,-0.02, 0.91, -24.25, 2.06, 1.94, 8.76, repro,
2004-05-10,1.02, 0.61, -15.63, 1.92, 1.87, 8.37, repro,
2004-05-11,-0.07, 1.64, -7.71, 1.92, 1.88, 8.32, repro,
2004-05-12,1.25, 1.86, -19.87, 2.06, 1.92, 9.00, repro,
2004-05-13,1.99, -0.08, -18.41, 2.08, 1.93, 9.08, repro,
2004-05-14,1.72, 0.69, -8.29, 2.13, 2.10, 8.95, repro,
2004-05-15,1.82, -1.39, -14.81, 1.89, 1.82, 8.11, repro,
2004-05-16,0.99, 0.92, -21.05, 1.80, 1.75, 7.81, repro,
2004-05-17,1.26, 0.71, -14.13, 1.81, 1.77, 7.87, repro,
2004-05-18,2.35, 1.88, -13.81, 2.07, 2.25, 9.53, repro,
2004-05-19,0.76, 0.87, -11.50, 1.83, 1.81, 7.91, repro,
2004-05-20,0.24, 2.60, -14.01, 1.83, 1.81, 7.87, repro,
2004-05-21,1.31, 0.92, -15.95, 1.87, 1.76, 8.03, repro,
2004-05-22,2.06, 1.88, -14.62, 1.89, 1.92, 8.28, repro,
2004-05-23,0.48, 3.47, -0.94, 1.95, 1.87, 8.39, repro,
2004-05-24,0.37, 3.14, -9.92, 1.80, 1.74, 7.73, repro,
2004-05-25,1.42, 3.61, -12.20, 1.85, 1.79, 7.84, repro,
2004-05-26,1.70, 0.96, -10.37, 1.81, 1.76, 7.79, repro,
2004-05-27,0.81, 1.83, 1.69, 1.85, 1.80, 7.91, repro,
2004-05-28,1.24, 2.96, -6.35, 1.86, 1.83, 7.99, repro,
2004-05-29,1.72, 3.03, -9.01, 1.81, 1.76, 7.77, repro,
2004-05-30,1.06, 2.28, -2.94, 1.80, 1.75, 7.74, repro,
2004-05-31,1.30, 3.68, -4.42, 1.84, 1.76, 8.06, repro,
2004-06-01,1.09, 2.57, 0.99, 1.87, 1.81, 8.23, repro,
2004-06-02,1.11, 1.69, -13.42, 2.04, 1.97, 9.02, repro,
2004-06-03,1.42, 1.75, -15.86, 1.95, 1.99, 8.49, repro,
2004-06-04,0.57, 3.44, 5.66, 1.96, 1.85, 8.50, repro,
2004-06-05,-0.37, 3.71, -3.10, 1.91, 1.86, 8.30, repro,
2004-06-06,-0.42, 1.73, -1.01, 1.84, 1.84, 8.04, repro,
2004-06-07,0.76, 4.49, -1.81, 1.80, 1.77, 7.89, repro,
2004-06-08,1.76, 3.48, -5.69, 1.79, 1.76, 7.78, repro,
2004-06-09,2.34, 2.79, -7.66, 1.84, 1.79, 8.01, repro,
2004-06-10,1.81, 4.27, 0.68, 2.13, 2.02, 9.72, repro,